Regional Weather Roundup
Issued by NWS Jackson, KY

Home | Current Version | Previous Version | Text Only | Print | Product List | Glossary Off
Versions: 1 2 3 4 5 6 7 8 9 10 11 12 13 14 15 16 17 18 19 20 21 22 23 24 25 26 27 28 29 30 31 32 33 34 35 36 37 38 39 40 41 42 43 44 45 46 47 48 49 50

000
ASUS43 KJKL 310010
RWRJKL

EAST KENTUCKY HOURLY WEATHER ROUNDUP
NATIONAL WEATHER SERVICE JACKSON KY
700 PM EST FRI JAN 30 2015

NOTE: "FAIR" INDICATES FEW OR NO CLOUDS BELOW 12,000 FEET WITH
NO SIGNIFICANT WEATHER AND/OR OBSTRUCTIONS TO VISIBILITY.

* THESE REPORTS ARE NOT UNDER NWS QUALITY CONTROL AND MAY NOT
  REPORT WEATHER SUCH AS PRECIPITATION AND FOG.

KYZ079-080-083-085-087-088-110-112-115-119-120-310100
...EASTERN KENTUCKY...

CITY           SKY/WX    TMP DP  RH WIND       PRES   REMARKS
JACKSON        CLEAR     28  14  55 N5        30.40R WCI  23
6HR MIN TEMP:  28; 6HR MAX TEMP:  35;

LONDON         CLEAR     32  12  43 N6        30.41R WCI  26
6HR MIN TEMP:  32; 6HR MAX TEMP:  40;

SOMERSET*      CLEAR     32  16  51 NE6       30.44R WCI  26
MONTICELLO*    CLEAR     28  19  69 N6        30.45R WCI  22
6HR MIN TEMP:  28; 6HR MAX TEMP:  42;

MIDDLESBORO*   CLEAR     33  18  55 CALM      30.39R
6HR MIN TEMP:  33; 6HR MAX TEMP:  40;

HARLAN APT*    CLEAR     32  12  43 NW7       30.37R WCI  26
HAZARD APT*    CLEAR     30  14  51 NW5       30.40R WCI  25
BLACK MTN*       N/A     16  14  93 NW6         N/A  WCI   7
PIKEVILLE APT* CLEAR     27  12  54 N6        30.37R WCI  20
BIG SANDY*     CLEAR     28  12  50 CALM      30.39S
6HR MIN TEMP:  28; 6HR MAX TEMP:  33;

MOREHEAD APT*  CLEAR     27  12  54 N3        30.45S
$$

KYZ035-036-041-042-044-050-067-078-099-310100
...CENTRAL KENTUCKY...

CITY           SKY/WX    TMP DP  RH WIND       PRES   REMARKS
MT STERLING*     N/A     28  16  59 NE3       30.44S
FLEMING/MASON* CLEAR     26  13  58 N6        30.46S WCI  19
DANVILLE*      CLEAR     30  18  59 N3        30.44R
RICHMOND*      CLEAR     30  14  51 CALM      30.43R
LEXINGTON      CLEAR     28  14  55 N6        30.43R WCI  22
6HR MIN TEMP:  28; 6HR MAX TEMP:  36;

FRANKFORT      CLEAR     29  13  51 CALM      30.44R
6HR MIN TEMP:  29; 6HR MAX TEMP:  37;

$$

KYZ091>093-OHZ055-061-077-WVZ005-015-034-035-042-310100
...SOUTHERN OHIO/WEST VIRGINIA...

CITY           SKY/WX    TMP DP  RH WIND       PRES   REMARKS
COVINGTON      PTCLDY    26  15  63 N6        30.44S WCI  19
COLUMBUS       PTCLDY    19   8  62 N5        30.45R WCI  12
DAYTON         PTCLDY    20  12  71 CALM      30.44S
WILMINGTON     CLEAR     21  12  68 N3        30.43S
HUNTINGTON     CLEAR     25  12  58 N7        30.43R WCI  17
CHARLESTON     PTCLDY    25  10  53 NW10      30.41R WCI  15
PINEVILLE*     CLEAR     26  16  63 MISG      30.38R
BECKLEY        CLEAR     18   7  62 NW10      30.28R WCI   6
BLUEFIELD      CLEAR     22   7  52 NW13G26   30.24R WCI  10
$$

VAZ002-007-008-TNZ017-027-036-066-071-310100
...SOUTHWEST VIRGINIA/EAST TENNESSEE...

CITY           SKY/WX    TMP DP  RH WIND       PRES   REMARKS
WISE*          CLEAR     27  12  54 NW7       30.29R WCI  19
JONESVILLE*    CLEAR     30  16  55 CALM      30.38R
ABINGDON*      CLEAR     31  13  47 N13       30.30R WCI  21
BRISTOL        PTCLDY    32  14  47 N7        30.33R WCI  26
OAK RIDGE      CLEAR     39  18  42 CALM      30.39R
CROSSVILLE     CLEAR     34  17  50 N5        30.36R WCI  30
NASHVILLE      PTCLDY    38  20  48 N7        30.43S WCI  33
$$

...KEY TO REMARKS...
VSB - VISIBILITY IN MILES
WCI - WIND CHILL INDEX
HX  - HEAT INDEX

$$



USA.gov is the U.S. government's official web portal to all federal, state and local government web resources and services.